User: anonymous   Login
Location: Unspecified
(0.0000°N, 0.0000°E)
Time: 07:08:48
(UTC+00:00)
Language:

HODOYOSHI 4 - Orbit

View from above orbital plane
View from above orbital plane
View from above satellite
View from above satellite

Ground track
Ground track

The orbit data is extracted from the following two-line orbital elements,

1 40011U 14033B   22140.82962423  .00001151  00000-0  15193-3 0  9992
2 40011  97.6815  15.2025 0026753 165.0556 195.1464 14.81626572428006
Epoch (UTC): 20 May 2022 19:54:39
Eccentricity: 0.0026753
inclination: 97.6815°
perigee height: 605 km
apogee height: 643 km
right ascension of ascending node: 15.2025°
argument of perigee: 165.0556°
revolutions per day: 14.81626572
mean anomaly at epoch: 195.1464°
orbit number at epoch: 42800

The dashed part of the orbit path shows where the satellite is in the earth's shadow,  

DLR